Land O' Lakes, WI

3:21 AM CST on December 12, 2017 (GMT -0600)
Kings Land O'Lakes

Weather History for KLNL - April, 2013

Change the Weather History Date:

Wednesday, April 3, 2013

  Actual Average (KEGV) Record (KEGV)
Temperature  
Mean Temperature 18 °F -  
Max Temperature 41 °F 46 °F 57 °F (2005)
Min Temperature -4 °F 25 °F 1 °F (2013)
Degree Days  
Heating Degree Days 46    
Moisture  
Dew Point 2 °F    
Average Humidity 50    
Maximum Humidity 92    
Minimum Humidity 18    
Precipitation  
Precipitation 0.00 in - - ()
Sea Level Pressure  
Sea Level Pressure 30.25 in    
Wind  
Wind Speed 3 mph (SSW)    
Max Wind Speed 13 mph    
Max Gust Speed 22 mph    
Visibility 10 miles    
Events      
Averages and records for this station are not official NWS values.
T = Trace of Precipitation, MM = Missing Value Source: NWS Daily Summary

Daily Weather History Graph

Daily Weather History Graph

Search for Another Location

Airport or City:

Trip Planner

Search our weather history database for the weather conditions in past years. The results will help you decide how hot, cold, wet, or windy it might be!

Date:

Astronomy

Apr. 03, 2013 Rise Set
Actual Time 6:32 AM CDT 7:28 PM CDT
Civil Twilight 6:01 AM CDT 7:59 PM CDT
Nautical Twilight 5:25 AM CDT 8:35 PM CDT
Astronomical Twilight 4:47 AM CDT 9:13 PM CDT
Moon 2:34 AM CDT (4/3) 12:19 PM CDT (4/3)
Length of Visible Light 13h 57m
Length of Day
12h 56m
Last Quarter, 44% of the Moon is Illuminated
Apr 3
Last Quarter
Apr 10
New
Apr 18
First Quarter
Apr 25
Full
May 2
Last Quarter

Hourly Weather History & Observations

Time (CDT) Temp. Windchill Dew Point Humidity Pressure Visibility Wind Dir Wind Speed Gust Speed Precip Events Conditions
12:15 AM 5.0 °F - 1.4 °F 85% 30.25 in 10.0 mi Calm Calm - N/A   Clear
12:35 AM 8.6 °F - 3.2 °F 79% 30.26 in 10.0 mi Calm Calm - N/A   Clear
12:55 AM 5.0 °F - 1.4 °F 85% 30.26 in 10.0 mi Calm Calm - N/A   Clear
1:15 AM 5.0 °F - 1.4 °F 85% 30.27 in 10.0 mi Calm Calm - N/A   Clear
1:35 AM 5.0 °F - 1.4 °F 85% 30.27 in 10.0 mi Calm Calm - N/A   Clear
1:55 AM 3.2 °F - 1.4 °F 92% 30.28 in 10.0 mi Calm Calm - N/A   Clear
2:15 AM 3.2 °F - -0.4 °F 85% 30.29 in 10.0 mi Calm Calm - N/A   Clear
2:35 AM 3.2 °F - -0.4 °F 85% 30.29 in 10.0 mi Calm Calm - N/A   Clear
2:55 AM 3.2 °F - -0.4 °F 85% 30.29 in 10.0 mi Calm Calm - N/A   Clear
3:15 AM 1.4 °F - -2.2 °F 85% 30.29 in 10.0 mi Calm Calm - N/A   Clear
3:35 AM 1.4 °F - -4.0 °F 78% 30.30 in 10.0 mi Calm Calm - N/A   Clear
3:55 AM 1.4 °F - -2.2 °F 85% 30.30 in 10.0 mi Calm Calm - N/A   Clear
4:15 AM -0.4 °F - -4.0 °F 85% 30.31 in 10.0 mi Calm Calm - N/A   Clear
4:35 AM -0.4 °F - -5.8 °F 78% 30.31 in 10.0 mi Calm Calm - N/A   Clear
4:55 AM -0.4 °F - -4.0 °F 85% 30.31 in 10.0 mi Calm Calm - N/A   Clear
5:15 AM -2.2 °F - -5.8 °F 85% 30.32 in 10.0 mi Calm Calm - N/A   Clear
5:35 AM -2.2 °F - -5.8 °F 85% 30.32 in 10.0 mi Calm Calm - N/A   Clear
5:55 AM -4.0 °F - -7.6 °F 85% 30.32 in 10.0 mi Calm Calm - N/A   Clear
6:15 AM -4.0 °F - -5.8 °F 92% 30.33 in 10.0 mi Calm Calm - N/A   Clear
6:35 AM -4.0 °F - -7.6 °F 85% 30.33 in 10.0 mi Calm Calm - N/A   Clear
6:55 AM -4.0 °F - -7.6 °F 85% 30.34 in 10.0 mi Calm Calm - N/A   Clear
7:15 AM -0.4 °F - -5.8 °F 78% 30.34 in 10.0 mi Calm Calm - N/A   Clear
7:35 AM 1.4 °F - -2.2 °F 85% 30.34 in 10.0 mi Calm Calm - N/A   Clear
7:55 AM 5.0 °F - 1.4 °F 85% 30.35 in 10.0 mi Calm Calm - N/A   Clear
8:15 AM 10.4 °F - 5.0 °F 79% 30.35 in 10.0 mi Calm Calm - N/A   Clear
8:35 AM 15.8 °F - 6.8 °F 68% 30.35 in 10.0 mi Calm Calm - N/A   Clear
8:55 AM 19.4 °F - 8.6 °F 63% 30.35 in 10.0 mi Calm Calm - N/A   Clear
9:15 AM 24.8 °F - 6.8 °F 46% 30.35 in 10.0 mi Calm Calm - N/A   Clear
9:35 AM 24.8 °F - 5.0 °F 43% 30.35 in 10.0 mi Calm Calm - N/A   Clear
9:55 AM 26.6 °F - 5.0 °F 40% 30.35 in 10.0 mi Calm Calm - N/A   Clear
10:15 AM 28.4 °F 24.6 °F 5.0 °F 37% 30.36 in 10.0 mi South 3.5 mph - N/A   Clear
10:35 AM 28.4 °F 22.2 °F 3.2 °F 34% 30.36 in 10.0 mi SSW 5.8 mph - N/A   Clear
10:55 AM 30.2 °F 25.4 °F 3.2 °F 32% 30.37 in 10.0 mi WSW 4.6 mph - N/A   Clear
11:15 AM 32.0 °F 26.4 °F 3.2 °F 30% 30.37 in 10.0 mi WSW 5.8 mph - N/A   Clear
11:35 AM 32.0 °F 25.6 °F 3.2 °F 30% 30.36 in 10.0 mi WSW 6.9 mph - N/A   Clear
11:55 AM 32.0 °F 25.6 °F 5.0 °F 32% 30.36 in 10.0 mi WSW 6.9 mph - N/A   Clear
12:15 PM 32.0 °F 24.8 °F 3.2 °F 30% 30.35 in 10.0 mi South 8.1 mph - N/A   Clear
12:35 PM 32.0 °F 25.6 °F 3.2 °F 30% 30.34 in 10.0 mi West 6.9 mph - N/A   Clear
12:55 PM 33.8 °F 27.7 °F 3.2 °F 28% 30.33 in 10.0 mi South 6.9 mph - N/A   Clear
1:15 PM 33.8 °F 27.7 °F 3.2 °F 28% 30.32 in 10.0 mi SSW 6.9 mph - N/A   Clear
1:35 PM 35.6 °F 29.9 °F 1.4 °F 24% 30.31 in 10.0 mi WSW 6.9 mph - N/A   Clear
1:55 PM 35.6 °F 30.7 °F -0.4 °F 22% 30.30 in 10.0 mi SSW 5.8 mph - N/A   Clear
2:15 PM 35.6 °F 28.6 °F -4.0 °F 18% 30.28 in 10.0 mi SW 9.2 mph - N/A   Clear
2:35 PM 35.6 °F 30.7 °F -0.4 °F 22% 30.26 in 10.0 mi South 5.8 mph - N/A   Clear
2:55 PM 37.4 °F 34.9 °F -0.4 °F 20% 30.25 in 10.0 mi SSW 3.5 mph - N/A   Clear
3:15 PM 37.4 °F 33.8 °F -0.4 °F 20% 30.24 in 10.0 mi South 4.6 mph - N/A   Clear
3:35 PM 37.4 °F 31.4 °F -0.4 °F 20% 30.23 in 10.0 mi SSW 8.1 mph - N/A   Clear
3:55 PM 39.2 °F 33.0 °F -0.4 °F 19% 30.22 in 10.0 mi South 9.2 mph - N/A   Clear
4:15 PM 39.2 °F 32.5 °F 1.4 °F 21% 30.21 in 10.0 mi South 10.4 mph 16.1 mph N/A   Clear
4:35 PM 39.2 °F 32.5 °F 1.4 °F 21% 30.19 in 10.0 mi South 10.4 mph 17.3 mph N/A   Clear
4:55 PM 41.0 °F 33.9 °F -0.4 °F 18% 30.19 in 10.0 mi SSW 12.7 mph 16.1 mph N/A   Clear
5:15 PM 41.0 °F 34.3 °F 1.4 °F 19% 30.19 in 10.0 mi SSW 11.5 mph 18.4 mph N/A   Clear
5:35 PM 39.2 °F 32.0 °F 1.4 °F 21% 30.18 in 10.0 mi SSW 11.5 mph 18.4 mph N/A   Clear
5:55 PM 39.2 °F 31.6 °F 3.2 °F 22% 30.16 in 10.0 mi SSW 12.7 mph 20.7 mph N/A   Clear
6:15 PM 39.2 °F 33.0 °F 5.0 °F 24% 30.16 in 10.0 mi SW 9.2 mph - N/A   Clear
6:35 PM 37.4 °F 29.8 °F 3.2 °F 24% 30.16 in 10.0 mi SSW 11.5 mph 20.7 mph N/A   Clear
6:55 PM 35.6 °F 28.0 °F 3.2 °F 26% 30.15 in 10.0 mi SSW 10.4 mph 21.9 mph N/A   Clear
7:15 PM 35.6 °F 28.6 °F 3.2 °F 26% 30.15 in 10.0 mi SSW 9.2 mph 20.7 mph N/A   Clear
7:35 PM 33.8 °F 26.4 °F 3.2 °F 28% 30.14 in 10.0 mi SSW 9.2 mph - N/A   Clear
7:55 PM 33.8 °F 27.7 °F 5.0 °F 30% 30.13 in 10.0 mi SSW 6.9 mph - N/A   Clear
8:15 PM 32.0 °F 25.6 °F 5.0 °F 32% 30.12 in 10.0 mi SSW 6.9 mph - N/A   Clear
8:35 PM 32.0 °F 24.2 °F 6.8 °F 35% 30.12 in 10.0 mi SSW 9.2 mph - N/A   Clear
8:55 PM 32.0 °F 25.6 °F 8.6 °F 38% 30.12 in 10.0 mi SSW 6.9 mph 16.1 mph N/A   Clear
9:15 PM 32.0 °F 24.2 °F 8.6 °F 38% 30.11 in 10.0 mi SSW 9.2 mph - N/A   Clear
9:35 PM 32.0 °F 26.4 °F 10.4 °F 41% 30.11 in 10.0 mi SSW 5.8 mph - N/A   Clear
9:55 PM 32.0 °F 25.6 °F 10.4 °F 41% 30.10 in 10.0 mi SSW 6.9 mph - N/A   Clear
10:15 PM 32.0 °F 24.8 °F 10.4 °F 41% 30.09 in 10.0 mi South 8.1 mph 16.1 mph N/A   Clear
10:35 PM 32.0 °F 26.4 °F 12.2 °F 44% 30.07 in 10.0 mi SSW 5.8 mph 17.3 mph N/A   Clear
10:55 PM 32.0 °F 24.2 °F 12.2 °F 44% 30.07 in 10.0 mi SSW 9.2 mph 17.3 mph N/A   Clear
11:15 PM 32.0 °F 24.8 °F 12.2 °F 44% 30.06 in 10.0 mi SSW 8.1 mph 18.4 mph N/A   Clear
11:35 PM 32.0 °F 24.8 °F 12.2 °F 44% 30.06 in 10.0 mi SSW 8.1 mph 17.3 mph N/A   Clear
11:55 PM 32.0 °F 23.6 °F 14.0 °F 48% 30.05 in 10.0 mi SSW 10.4 mph 17.3 mph N/A   Scattered Clouds